QPF
0.00 0.00 0.00 0.00 0.00 0.00 0.00 0.00 0.00 0.00 0.01 0.01 0.01 0.00 0.00 0.00 0.01 0.01 0.02 0.01 0.01 0.02 0.02 0.01 0.01 0.00 0.00 0.01 0.01 0.02 0.03 0.02 0.02 0.02 0.03 0.03 0.03 0.03 0.02 0.01 0.02 0.02 0.02 0.02
0.00 0.00 0.00 0.00 0.00 0.00 0.00 0.01 0.01 0.01 0.01 0.00 0.00 0.00 0.00 0.01 0.01 0.01 0.01 0.01 0.01 0.01 0.01 0.01 0.01 0.01 0.01 0.01 0.01 0.02 0.03 0.02 0.02 0.02 0.02 0.03 0.03 0.03 0.03 0.02 0.02 0.01 0.01 0.01
0.00 0.00 0.00 0.00 0.00 0.01 0.01 0.01 0.02 0.02 0.01 0.00 0.00 0.00 0.00 0.00 0.01 0.01 0.01 0.01 0.00 0.00 0.00 0.01 0.02 0.02 0.02 0.01 0.01 0.01 0.02 0.03 0.02 0.02 0.03 0.02 0.02 0.02 0.02 0.02 0.01 0.01 0.01 0.01
0.00 0.00 0.00 0.00 0.00 0.01 0.01 0.01 0.00 0.01 0.00 0.00 0.00 0.00 0.00 0.00 0.00 0.00 0.00 0.00 0.00 0.00 0.00 0.00 0.01 0.02 0.02 0.01 0.01 0.01 0.03 0.03 0.03 0.04 0.04 0.03 0.02 0.02 0.02 0.02 0.02 0.01 0.01 0.01
0.01 0.00 0.00 0.00 0.01 0.00 0.01 0.01 0.00 0.00 0.01 0.01 0.00 0.00 0.00 0.00 0.01 0.00 0.00 0.00 0.00 0.00 0.01 0.01 0.01 0.02 0.03 0.03 0.03 0.02 0.02 0.01 0.01 0.02 0.03 0.03 0.03 0.02 0.02 0.02 0.02 0.02 0.01 0.01
0.01 0.01 0.00 0.00 0.00 0.00 0.01 0.01 0.01 0.01 0.02 0.02 0.01 0.01 0.01 0.01 0.01 0.00 0.00 0.00 0.00 0.01 0.02 0.02 0.02 0.03 0.03 0.03 0.03 0.02 0.01 0.01 0.01 0.01 0.01 0.02 0.02 0.02 0.01 0.01 0.01 0.01 0.01 0.01
0.02 0.01 0.00 0.00 0.00 0.01 0.01 0.02 0.03 0.03 0.03 0.01 0.01 0.01 0.01 0.01 0.01 0.01 0.01 0.01 0.01 0.02 0.03 0.03 0.03 0.03 0.03 0.02 0.02 0.01 0.01 0.00 0.00 0.01 0.01 0.01 0.01 0.02 0.02 0.02 0.02 0.02 0.02 0.02
0.02 0.02 0.01 0.01 0.01 0.02 0.03 0.03 0.04 0.03 0.02 0.01 0.01 0.01 0.01 0.01 0.02 0.01 0.01 0.01 0.01 0.02 0.03 0.04 0.04 0.03 0.02 0.02 0.01 0.01 0.00 0.00 0.00 0.01 0.01 0.01 0.01 0.02 0.02 0.01 0.01 0.02 0.03 0.03
0.02 0.02 0.03 0.03 0.03 0.04 0.04 0.05 0.05 0.05 0.03 0.02 0.02 0.02 0.01 0.01 0.01 0.01 0.01 0.01 0.01 0.01 0.02 0.05 0.06 0.03 0.02 0.02 0.02 0.01 0.01 0.01 0.01 0.01 0.01 0.01 0.01 0.01 0.01 0.01 0.02 0.03 0.03 0.04
0.03 0.04 0.04 0.03 0.03 0.03 0.04 0.04 0.05 0.05 0.03 0.02 0.02 0.02 0.01 0.01 0.01 0.02 0.02 0.02 0.02 0.01 0.03 0.07 0.07 0.04 0.03 0.03 0.02 0.02 0.01 0.01 0.01 0.02 0.01 0.01 0.02 0.02 0.02 0.02 0.03 0.03 0.04 0.04
0.02 0.03 0.03 0.03 0.03 0.03 0.05 0.05 0.05 0.08 0.08 0.04 0.02 0.02 0.02 0.02 0.02 0.03 0.02 0.02 0.02 0.02 0.04 0.06 0.06 0.04 0.04 0.03 0.03 0.03 0.02 0.01 0.01 0.01 0.02 0.02 0.02 0.03 0.03 0.03 0.03 0.03 0.03 0.03
0.02 0.03 0.04 0.03 0.03 0.04 0.05 0.06 0.07 0.08 0.07 0.05 0.03 0.02 0.02 0.02 0.02 0.02 0.02 0.01 0.01 0.03 0.04 0.04 0.04 0.03 0.03 0.03 0.02 0.02 0.02 0.02 0.01 0.01 0.01 0.01 0.01 0.02 0.02 0.02 0.03 0.03 0.03 0.03
0.01 0.02 0.03 0.04 0.03 0.03 0.04 0.06 0.07 0.05 0.06 0.05 0.04 0.03 0.03 0.02 0.02 0.01 0.01 0.01 0.01 0.02 0.02 0.02 0.02 0.02 0.03 0.03 0.02 0.02 0.02 0.02 0.01 0.01 0.01 0.01 0.01 0.01 0.01 0.01 0.02 0.02 0.02 0.03
0.01 0.02 0.02 0.02 0.02 0.03 0.04 0.04 0.06 0.08 0.10 0.08 0.05 0.04 0.02 0.02 0.02 0.01 0.01 0.01 0.01 0.01 0.01 0.02 0.02 0.02 0.02 0.02 0.02 0.02 0.03 0.02 0.02 0.01 0.01 0.01 0.02 0.02 0.01 0.01 0.01 0.02 0.01 0.01
0.00 0.01 0.01 0.01 0.01 0.02 0.03 0.03 0.05 0.09 0.11 0.08 0.06 0.05 0.04 0.03 0.02 0.02 0.02 0.02 0.03 0.02 0.02 0.02 0.02 0.02 0.01 0.02 0.02 0.02 0.01 0.01 0.01 0.01 0.02 0.02 0.02 0.02 0.02 0.03 0.02 0.02 0.01 0.01
0.01 0.01 0.01 0.01 0.02 0.02 0.02 0.03 0.04 0.06 0.06 0.05 0.04 0.04 0.03 0.02 0.02 0.02 0.03 0.04 0.03 0.03 0.03 0.03 0.03 0.03 0.02 0.02 0.02 0.02 0.01 0.01 0.02 0.02 0.02 0.02 0.02 0.02 0.02 0.03 0.03 0.02 0.02 0.01
0.01 0.01 0.01 0.01 0.01 0.01 0.02 0.03 0.05 0.06 0.05 0.03 0.02 0.02 0.02 0.02 0.01 0.02 0.02 0.02 0.02 0.02 0.02 0.03 0.02 0.02 0.02 0.02 0.02 0.02 0.01 0.01 0.01 0.01 0.02 0.01 0.01 0.02 0.02 0.02 0.02 0.02 0.02 0.02
0.02 0.02 0.02 0.02 0.02 0.01 0.02 0.02 0.03 0.04 0.04 0.03 0.02 0.02 0.02 0.02 0.02 0.02 0.02 0.01 0.01 0.01 0.02 0.02 0.02 0.02 0.02 0.01 0.01 0.01 0.01 0.01 0.01 0.02 0.02 0.02 0.02 0.02 0.02 0.02 0.02 0.02 0.02 0.03
0.03 0.03 0.03 0.02 0.02 0.02 0.02 0.02 0.02 0.03 0.04 0.03 0.02 0.02 0.02 0.03 0.02 0.02 0.03 0.02 0.02 0.02 0.03 0.04 0.05 0.04 0.03 0.02 0.02 0.02 0.02 0.02 0.02 0.02 0.02 0.03 0.03 0.03 0.02 0.02 0.02 0.02 0.02 0.02
0.02 0.03 0.03 0.03 0.03 0.02 0.02 0.02 0.01 0.02 0.03 0.03 0.03 0.03 0.03 0.04 0.04 0.03 0.04 0.04 0.04 0.04 0.05 0.05 0.06 0.05 0.04 0.05 0.05 0.04 0.03 0.02 0.02 0.02 0.02 0.02 0.02 0.03 0.03 0.03 0.03 0.02 0.02 0.03
0.02 0.02 0.02 0.03 0.03 0.02 0.02 0.02 0.01 0.01 0.02 0.03 0.04 0.04 0.04 0.04 0.04 0.03 0.03 0.04 0.04 0.04 0.04 0.05 0.04 0.04 0.04 0.05 0.05 0.05 0.04 0.03 0.02 0.03 0.03 0.02 0.02 0.02 0.02 0.03 0.03 0.03 0.03 0.03
0.02 0.02 0.02 0.03 0.02 0.02 0.02 0.01 0.01 0.01 0.02 0.03 0.04 0.05 0.04 0.04 0.04 0.04 0.04 0.04 0.03 0.03 0.03 0.02 0.02 0.02 0.03 0.03 0.03 0.03 0.03 0.02 0.03 0.04 0.06 0.05 0.04 0.03 0.03 0.03 0.03 0.04 0.04 0.04
0.01 0.02 0.02 0.03 0.02 0.01 0.02 0.02 0.02 0.02 0.02 0.03 0.03 0.03 0.03 0.03 0.04 0.06 0.06 0.03 0.02 0.01 0.01 0.02 0.02 0.02 0.02 0.02 0.02 0.03 0.03 0.03 0.04 0.05 0.06 0.07 0.06 0.04 0.03 0.03 0.03 0.04 0.04 0.04
0.01 0.01 0.02 0.03 0.02 0.01 0.02 0.02 0.03 0.03 0.03 0.02 0.02 0.02 0.02 0.03 0.03 0.04 0.04 0.02 0.01 0.01 0.01 0.02 0.02 0.02 0.02 0.02 0.03 0.03 0.03 0.03 0.03 0.04 0.04 0.05 0.05 0.05 0.04 0.03 0.03 0.03 0.04 0.05
0.02 0.01 0.02 0.02 0.03 0.02 0.01 0.01 0.02 0.03 0.03 0.02 0.01 0.01 0.01 0.02 0.03 0.03 0.03 0.02 0.02 0.01 0.01 0.01 0.02 0.02 0.02 0.02 0.03 0.03 0.03 0.02 0.02 0.02 0.02 0.03 0.03 0.03 0.04 0.05 0.05 0.04 0.05 0.06
0.02 0.02 0.02 0.02 0.03 0.03 0.02 0.02 0.03 0.04 0.04 0.03 0.02 0.02 0.01 0.01 0.02 0.02 0.03 0.03 0.02 0.01 0.01 0.02 0.02 0.02 0.02 0.03 0.03 0.02 0.02 0.01 0.01 0.01 0.02 0.02 0.03 0.03 0.03 0.05 0.06 0.07 0.05 0.04
0.03 0.03 0.03 0.03 0.03 0.04 0.04 0.04 0.04 0.05 0.05 0.04 0.03 0.02 0.02 0.01 0.01 0.01 0.02 0.04 0.03 0.02 0.02 0.02 0.02 0.02 0.01 0.01 0.01 0.01 0.01 0.01 0.02 0.02 0.02 0.02 0.03 0.05 0.05 0.05 0.05 0.06 0.07 0.07
MSLP
1014.15 1013.85 1013.65 1013.55 1013.50 1013.42 1013.26 1012.96 1012.48 1011.81 1010.97 1010.02 1009.03 1008.08 1007.22 1006.49 1005.91 1005.45 1005.08 1004.74 1004.36 1003.92 1003.39 1002.79 1002.14 1001.51 1000.96 1000.57 1000.37 1000.40 1000.65 1001.11 1001.73 1002.45 1003.24 1004.04 1004.81 1005.54 1006.21 1006.84 1007.43 1007.99 1008.52 1009.02
1014.25 1013.97 1013.79 1013.68 1013.60 1013.49 1013.28 1012.92 1012.37 1011.63 1010.73 1009.72 1008.66 1007.63 1006.70 1005.90 1005.24 1004.72 1004.29 1003.90 1003.50 1003.05 1002.54 1001.98 1001.41 1000.88 1000.45 1000.19 1000.14 1000.32 1000.72 1001.32 1002.08 1002.92 1003.81 1004.69 1005.52 1006.28 1006.98 1007.62 1008.21 1008.77 1009.29 1009.78
1014.36 1014.12 1013.95 1013.82 1013.69 1013.51 1013.21 1012.74 1012.09 1011.26 1010.26 1009.16 1008.03 1006.94 1005.95 1005.10 1004.41 1003.85 1003.40 1003.01 1002.62 1002.22 1001.78 1001.31 1000.85 1000.45 1000.17 1000.06 1000.16 1000.49 1001.03 1001.76 1002.62 1003.55 1004.51 1005.43 1006.29 1007.07 1007.77 1008.39 1008.97 1009.50 1010.00 1010.47
1014.57 1014.36 1014.18 1014.01 1013.81 1013.52 1013.10 1012.52 1011.74 1010.79 1009.69 1008.51 1007.31 1006.17 1005.15 1004.29 1003.58 1003.03 1002.61 1002.25 1001.92 1001.59 1001.25 1000.89 1000.57 1000.31 1000.17 1000.21 1000.46 1000.91 1001.57 1002.39 1003.32 1004.30 1005.29 1006.23 1007.08 1007.84 1008.52 1009.11 1009.65 1010.16 1010.64 1011.09
1014.92 1014.72 1014.53 1014.30 1014.01 1013.61 1013.06 1012.34 1011.43 1010.37 1009.18 1007.93 1006.69 1005.54 1004.52 1003.66 1002.99 1002.48 1002.09 1001.80 1001.55 1001.30 1001.06 1000.82 1000.62 1000.49 1000.49 1000.66 1001.01 1001.56 1002.29 1003.17 1004.13 1005.14 1006.12 1007.04 1007.86 1008.59 1009.23 1009.79 1010.29 1010.77 1011.22 1011.67
1015.41 1015.22 1015.00 1014.71 1014.34 1013.83 1013.15 1012.31 1011.30 1010.14 1008.89 1007.61 1006.36 1005.22 1004.23 1003.42 1002.79 1002.33 1002.01 1001.77 1001.59 1001.42 1001.26 1001.12 1001.02 1000.99 1001.09 1001.35 1001.78 1002.39 1003.16 1004.06 1005.03 1006.02 1006.97 1007.86 1008.65 1009.34 1009.93 1010.46 1010.94 1011.39 1011.83 1012.27
1015.98 1015.80 1015.56 1015.22 1014.77 1014.17 1013.41 1012.48 1011.40 1010.20 1008.93 1007.66 1006.44 1005.35 1004.41 1003.66 1003.09 1002.69 1002.41 1002.22 1002.08 1001.96 1001.86 1001.77 1001.73 1001.77 1001.93 1002.24 1002.71 1003.35 1004.13 1005.02 1005.97 1006.93 1007.85 1008.70 1009.45 1010.11 1010.68 1011.18 1011.64 1012.08 1012.52 1012.96
1016.55 1016.38 1016.13 1015.76 1015.27 1014.62 1013.81 1012.85 1011.76 1010.56 1009.33 1008.11 1006.96 1005.95 1005.09 1004.41 1003.90 1003.54 1003.29 1003.12 1003.00 1002.89 1002.80 1002.74 1002.72 1002.78 1002.96 1003.28 1003.76 1004.40 1005.16 1006.03 1006.94 1007.87 1008.75 1009.57 1010.29 1010.93 1011.49 1011.99 1012.45 1012.90 1013.34 1013.78
1017.02 1016.87 1016.62 1016.26 1015.76 1015.11 1014.31 1013.37 1012.31 1011.19 1010.03 1008.91 1007.87 1006.95 1006.19 1005.58 1005.13 1004.80 1004.57 1004.40 1004.26 1004.13 1004.02 1003.94 1003.91 1003.96 1004.12 1004.43 1004.89 1005.50 1006.23 1007.06 1007.94 1008.82 1009.67 1010.46 1011.18 1011.81 1012.38 1012.89 1013.37 1013.83 1014.28 1014.72
1017.30 1017.18 1016.96 1016.63 1016.16 1015.56 1014.81 1013.94 1012.98 1011.96 1010.93 1009.94 1009.03 1008.24 1007.58 1007.05 1006.65 1006.34 1006.11 1005.92 1005.75 1005.59 1005.44 1005.31 1005.25 1005.26 1005.39 1005.66 1006.08 1006.64 1007.33 1008.11 1008.94 1009.78 1010.60 1011.37 1012.08 1012.72 1013.31 1013.85 1014.35 1014.83 1015.29 1015.73
1017.38 1017.30 1017.12 1016.84 1016.44 1015.90 1015.25 1014.49 1013.65 1012.77 1011.90 1011.06 1010.29 1009.63 1009.07 1008.63 1008.28 1008.00 1007.77 1007.57 1007.37 1007.16 1006.97 1006.80 1006.69 1006.66 1006.74 1006.96 1007.33 1007.83 1008.45 1009.17 1009.94 1010.73 1011.52 1012.27 1012.97 1013.62 1014.23 1014.80 1015.33 1015.83 1016.30 1016.73
1017.26 1017.23 1017.11 1016.90 1016.57 1016.12 1015.57 1014.94 1014.24 1013.51 1012.79 1012.11 1011.49 1010.96 1010.52 1010.16 1009.88 1009.64 1009.42 1009.21 1009.00 1008.77 1008.55 1008.35 1008.20 1008.13 1008.17 1008.33 1008.63 1009.06 1009.60 1010.24 1010.94 1011.67 1012.40 1013.12 1013.81 1014.47 1015.09 1015.67 1016.23 1016.74 1017.22 1017.63
1017.05 1017.06 1017.00 1016.84 1016.59 1016.23 1015.78 1015.26 1014.70 1014.11 1013.53 1013.00 1012.52 1012.12 1011.79 1011.53 1011.31 1011.13 1010.95 1010.76 1010.56 1010.34 1010.12 1009.91 1009.74 1009.64 1009.64 1009.75 1009.98 1010.32 1010.78 1011.32 1011.93 1012.58 1013.25 1013.92 1014.58 1015.22 1015.84 1016.43 1017.00 1017.52 1017.99 1018.39
1016.81 1016.87 1016.85 1016.75 1016.55 1016.27 1015.91 1015.48 1015.02 1014.55 1014.10 1013.69 1013.33 1013.05 1012.83 1012.66 1012.52 1012.41 1012.29 1012.16 1012.00 1011.82 1011.62 1011.43 1011.27 1011.16 1011.13 1011.19 1011.35 1011.61 1011.97 1012.40 1012.91 1013.46 1014.05 1014.65 1015.27 1015.88 1016.49 1017.07 1017.63 1018.15 1018.61 1018.98
1016.63 1016.72 1016.74 1016.68 1016.53 1016.29 1015.99 1015.63 1015.25 1014.86 1014.50 1014.19 1013.94 1013.75 1013.62 1013.54 1013.49 1013.46 1013.42 1013.36 1013.27 1013.16 1013.02 1012.87 1012.74 1012.64 1012.59 1012.61 1012.70 1012.88 1013.14 1013.48 1013.87 1014.33 1014.82 1015.35 1015.90 1016.47 1017.05 1017.61 1018.16 1018.66 1019.10 1019.45
1016.56 1016.68 1016.72 1016.68 1016.56 1016.35 1016.08 1015.76 1015.42 1015.10 1014.80 1014.55 1014.37 1014.26 1014.21 1014.22 1014.25 1014.30 1014.35 1014.37 1014.37 1014.33 1014.26 1014.18 1014.09 1014.01 1013.96 1013.96 1014.00 1014.11 1014.29 1014.52 1014.82 1015.17 1015.58 1016.03 1016.52 1017.04 1017.57 1018.11 1018.63 1019.11 1019.53 1019.86
1016.59 1016.74 1016.80 1016.78 1016.66 1016.47 1016.21 1015.92 1015.61 1015.31 1015.05 1014.85 1014.73 1014.67 1014.68 1014.75 1014.85 1014.98 1015.10 1015.21 1015.29 1015.33 1015.34 1015.33 1015.29 1015.24 1015.21 1015.19 1015.21 1015.27 1015.38 1015.54 1015.75 1016.02 1016.35 1016.73 1017.15 1017.62 1018.11 1018.61 1019.10 1019.55 1019.95 1020.26
1016.71 1016.88 1016.96 1016.95 1016.85 1016.66 1016.42 1016.14 1015.84 1015.57 1015.34 1015.16 1015.06 1015.04 1015.09 1015.21 1015.36 1015.55 1015.73 1015.91 1016.06 1016.17 1016.25 1016.30 1016.32 1016.31 1016.30 1016.29 1016.30 1016.34 1016.40 1016.51 1016.67 1016.88 1017.15 1017.47 1017.84 1018.26 1018.70 1019.16 1019.61 1020.02 1020.39 1020.67
1016.87 1017.07 1017.18 1017.19 1017.10 1016.93 1016.70 1016.44 1016.16 1015.91 1015.69 1015.54 1015.46 1015.46 1015.53 1015.67 1015.85 1016.06 1016.29 1016.51 1016.71 1016.88 1017.01 1017.11 1017.18 1017.22 1017.24 1017.25 1017.27 1017.31 1017.36 1017.45 1017.58 1017.76 1017.98 1018.26 1018.59 1018.96 1019.35 1019.76 1020.16 1020.53 1020.85 1021.11
1017.05 1017.28 1017.41 1017.45 1017.39 1017.25 1017.05 1016.81 1016.57 1016.34 1016.14 1016.01 1015.94 1015.95 1016.03 1016.18 1016.37 1016.59 1016.83 1017.07 1017.29 1017.49 1017.66 1017.80 1017.91 1017.99 1018.05 1018.10 1018.14 1018.19 1018.26 1018.35 1018.48 1018.64 1018.84 1019.09 1019.38 1019.70 1020.04 1020.39 1020.73 1021.04 1021.31 1021.52
1017.22 1017.49 1017.66 1017.73 1017.71 1017.61 1017.45 1017.25 1017.04 1016.85 1016.68 1016.57 1016.52 1016.54 1016.62 1016.75 1016.93 1017.15 1017.38 1017.61 1017.84 1018.05 1018.24 1018.40 1018.54 1018.66 1018.75 1018.84 1018.92 1019.00 1019.09 1019.20 1019.34 1019.50 1019.69 1019.91 1020.16 1020.43 1020.71 1020.99 1021.25 1021.49 1021.69 1021.85
1017.39 1017.69 1017.89 1018.00 1018.03 1017.97 1017.86 1017.72 1017.56 1017.41 1017.28 1017.19 1017.16 1017.18 1017.26 1017.38 1017.55 1017.74 1017.95 1018.17 1018.38 1018.59 1018.78 1018.96 1019.11 1019.25 1019.38 1019.50 1019.61 1019.73 1019.85 1019.98 1020.12 1020.28 1020.46 1020.66 1020.86 1021.08 1021.29 1021.49 1021.67 1021.83 1021.95 1022.04
1017.55 1017.87 1018.10 1018.25 1018.32 1018.31 1018.26 1018.17 1018.06 1017.96 1017.87 1017.82 1017.81 1017.84 1017.91 1018.02 1018.17 1018.34 1018.52 1018.72 1018.91 1019.10 1019.28 1019.46 1019.62 1019.77 1019.92 1020.06 1020.20 1020.34 1020.48 1020.63 1020.78 1020.94 1021.10 1021.26 1021.42 1021.57 1021.71 1021.83 1021.92 1021.99 1022.03 1022.05
1017.69 1018.02 1018.27 1018.45 1018.55 1018.59 1018.58 1018.54 1018.49 1018.44 1018.39 1018.38 1018.39 1018.43 1018.51 1018.62 1018.74 1018.89 1019.05 1019.22 1019.39 1019.56 1019.72 1019.88 1020.04 1020.20 1020.35 1020.50 1020.65 1020.81 1020.96 1021.11 1021.26 1021.40 1021.54 1021.66 1021.77 1021.86 1021.92 1021.96 1021.98 1021.96 1021.93 1021.88
1017.77 1018.10 1018.36 1018.55 1018.68 1018.75 1018.79 1018.80 1018.79 1018.78 1018.79 1018.80 1018.84 1018.90 1018.99 1019.09 1019.21 1019.34 1019.48 1019.62 1019.77 1019.91 1020.05 1020.20 1020.34 1020.48 1020.63 1020.78 1020.92 1021.07 1021.22 1021.36 1021.50 1021.62 1021.73 1021.81 1021.88 1021.91 1021.92 1021.89 1021.83 1021.75 1021.66 1021.56
1017.73 1018.05 1018.31 1018.51 1018.66 1018.76 1018.83 1018.88 1018.92 1018.96 1019.00 1019.06 1019.12 1019.20 1019.30 1019.41 1019.52 1019.64 1019.76 1019.88 1020.00 1020.12 1020.24 1020.36 1020.48 1020.60 1020.72 1020.85 1020.98 1021.11 1021.24 1021.36 1021.48 1021.58 1021.66 1021.71 1021.74 1021.73 1021.69 1021.62 1021.52 1021.40 1021.27 1021.14
1017.54 1017.85 1018.10 1018.31 1018.47 1018.60 1018.71 1018.79 1018.87 1018.95 1019.03 1019.12 1019.21 1019.32 1019.43 1019.54 1019.65 1019.77 1019.87 1019.98 1020.08 1020.17 1020.26 1020.35 1020.44 1020.53 1020.62 1020.72 1020.82 1020.92 1021.03 1021.13 1021.22 1021.30 1021.36 1021.40 1021.40 1021.37 1021.31 1021.22 1021.10 1020.96 1020.82 1020.68
Thickness
5725 5733 5736 5737 5737 5739 5738 5742 5739 5744 5746 5749 5752 5751 5749 5748 5746 5743 5741 5740 5738 5736 5734 5731 5728 5726 5724 5721 5719 5716 5713 5709 5706 5703 5700 5697 5694 5692 5690 5689 5688 5687 5686 5686
5712 5723 5726 5727 5733 5735 5735 5737 5738 5740 5741 5751 5751 5749 5743 5742 5740 5737 5736 5735 5734 5732 5730 5726 5724 5722 5719 5717 5714 5712 5708 5704 5701 5698 5695 5692 5689 5686 5684 5682 5681 5680 5679 5679
5704 5715 5714 5713 5727 5729 5730 5734 5734 5732 5739 5743 5738 5736 5736 5736 5735 5733 5733 5732 5730 5728 5725 5722 5720 5717 5714 5712 5710 5706 5702 5700 5697 5693 5689 5687 5684 5681 5678 5675 5674 5673 5672 5671
5699 5699 5687 5717 5731 5730 5726 5728 5733 5734 5736 5735 5733 5734 5734 5734 5732 5730 5729 5727 5725 5723 5721 5718 5716 5712 5709 5707 5704 5701 5698 5695 5692 5688 5684 5681 5678 5674 5671 5669 5667 5665 5664 5663
5689 5690 5699 5709 5718 5718 5714 5716 5727 5726 5727 5728 5728 5725 5724 5727 5728 5726 5725 5722 5720 5718 5715 5712 5709 5707 5703 5700 5698 5695 5692 5689 5686 5683 5679 5676 5672 5668 5665 5662 5660 5658 5657 5655
5681 5678 5683 5702 5712 5716 5710 5703 5720 5720 5718 5719 5716 5710 5716 5722 5720 5719 5718 5716 5713 5711 5709 5705 5703 5700 5696 5694 5692 5689 5687 5684 5681 5677 5673 5670 5665 5661 5659 5656 5654 5652 5650 5648
5673 5674 5690 5698 5703 5703 5688 5695 5709 5711 5711 5711 5708 5711 5714 5713 5711 5710 5708 5707 5705 5703 5700 5697 5696 5693 5690 5688 5686 5685 5682 5678 5674 5671 5667 5664 5660 5655 5652 5649 5647 5645 5644 5642
5670 5667 5677 5688 5691 5686 5686 5694 5698 5700 5703 5702 5702 5703 5703 5702 5700 5699 5698 5697 5696 5694 5691 5690 5688 5686 5683 5680 5680 5678 5675 5671 5667 5664 5661 5659 5653 5649 5646 5642 5640 5638 5637 5635
5669 5670 5673 5679 5679 5680 5683 5684 5688 5690 5692 5692 5692 5692 5692 5691 5690 5690 5689 5688 5687 5685 5682 5681 5679 5678 5675 5674 5673 5671 5667 5663 5660 5656 5653 5651 5647 5643 5640 5636 5635 5634 5632 5630
5659 5663 5666 5668 5670 5671 5674 5675 5679 5682 5684 5684 5682 5683 5682 5681 5680 5679 5679 5678 5677 5676 5673 5671 5670 5670 5668 5667 5665 5662 5659 5655 5652 5649 5646 5643 5640 5638 5636 5632 5629 5627 5625 5624
5649 5653 5656 5658 5660 5662 5664 5667 5670 5672 5674 5675 5675 5674 5673 5672 5671 5670 5669 5668 5668 5666 5664 5662 5661 5660 5660 5658 5656 5653 5650 5647 5645 5643 5640 5636 5633 5630 5628 5625 5622 5618 5617 5616
5642 5645 5646 5647 5652 5654 5654 5656 5659 5661 5662 5664 5665 5664 5664 5662 5661 5661 5660 5659 5658 5656 5655 5654 5653 5651 5650 5649 5646 5643 5641 5639 5638 5636 5633 5630 5627 5623 5617 5615 5611 5606 5603 5602
5634 5638 5639 5640 5642 5645 5646 5648 5650 5652 5652 5653 5654 5654 5653 5652 5652 5652 5652 5650 5649 5648 5647 5645 5644 5643 5641 5639 5637 5634 5632 5631 5631 5629 5625 5623 5620 5617 5613 5607 5602 5598 5595 5592
5626 5627 5627 5630 5631 5634 5636 5638 5640 5641 5641 5642 5642 5642 5643 5642 5642 5642 5642 5641 5641 5639 5638 5636 5635 5633 5632 5630 5627 5625 5624 5622 5621 5620 5618 5616 5614 5611 5608 5605 5602 5598 5590 5585
5619 5620 5620 5621 5623 5624 5626 5627 5627 5628 5629 5629 5629 5630 5630 5631 5631 5631 5631 5631 5630 5629 5628 5627 5625 5624 5623 5621 5618 5616 5615 5615 5613 5612 5610 5608 5606 5604 5601 5599 5596 5593 5590 5584
5610 5612 5612 5612 5613 5614 5615 5616 5617 5617 5618 5618 5618 5618 5619 5620 5621 5621 5620 5620 5618 5618 5617 5616 5615 5615 5614 5612 5609 5607 5606 5603 5601 5602 5601 5599 5597 5595 5593 5591 5588 5585 5583 5580
5599 5600 5601 5602 5603 5605 5606 5606 5607 5607 5608 5609 5609 5609 5609 5609 5609 5609 5609 5609 5609 5608 5607 5606 5605 5605 5604 5602 5600 5599 5598 5596 5591 5592 5592 5590 5588 5586 5584 5581 5579 5577 5575 5572
5594 5594 5595 5595 5595 5596 5596 5597 5597 5597 5598 5599 5600 5600 5600 5600 5600 5600 5600 5600 5599 5598 5596 5596 5595 5594 5593 5591 5590 5590 5589 5588 5586 5584 5582 5581 5579 5577 5575 5573 5571 5569 5566 5564
5585 5585 5586 5586 5586 5586 5586 5587 5588 5589 5589 5590 5590 5590 5591 5591 5590 5590 5590 5589 5588 5587 5585 5585 5581 5582 5581 5580 5577 5578 5578 5577 5576 5574 5572 5568 5568 5568 5566 5565 5563 5562 5560 5558
5577 5577 5577 5577 5577 5577 5576 5577 5578 5579 5580 5581 5581 5581 5581 5581 5580 5580 5579 5579 5579 5578 5576 5573 5572 5572 5571 5569 5565 5568 5567 5565 5564 5563 5562 5561 5560 5559 5558 5556 5555 5554 5552 5551
5567 5568 5568 5568 5568 5568 5568 5568 5568 5569 5569 5570 5571 5571 5571 5571 5571 5570 5570 5570 5568 5566 5564 5561 5562 5562 5561 5558 5554 5558 5557 5556 5554 5554 5553 5552 5552 5551 5550 5548 5547 5545 5544 5542
5558 5558 5559 5559 5559 5558 5558 5559 5559 5559 5559 5560 5561 5561 5561 5561 5561 5560 5560 5559 5558 5554 5555 5555 5554 5551 5549 5546 5548 5548 5547 5546 5545 5545 5544 5544 5543 5542 5540 5539 5538 5536 5535 5534
5549 5550 5550 5550 5550 5550 5550 5550 5551 5550 5550 5551 5551 5550 5551 5551 5552 5551 5551 5550 5549 5545 5546 5547 5543 5539 5536 5538 5540 5540 5539 5538 5537 5536 5535 5534 5534 5533 5532 5530 5529 5527 5526 5525
5540 5541 5542 5542 5542 5542 5542 5542 5542 5542 5543 5543 5543 5542 5542 5542 5542 5543 5542 5539 5538 5536 5539 5535 5531 5529 5527 5532 5533 5532 5531 5530 5529 5529 5528 5526 5525 5524 5523 5521 5520 5519 5517 5516
5535 5535 5535 5535 5536 5536 5535 5535 5534 5535 5536 5536 5536 5535 5536 5535 5534 5535 5534 5532 5529 5529 5531 5528 5524 5522 5524 5526 5525 5524 5523 5522 5521 5520 5519 5518 5517 5516 5515 5513 5511 5510 5510 5510
5529 5529 5529 5529 5530 5530 5530 5530 5530 5530 5530 5530 5529 5529 5528 5528 5527 5527 5526 5525 5525 5522 5524 5523 5521 5518 5520 5519 5517 5515 5514 5513 5513 5512 5511 5510 5509 5508 5507 5505 5503 5503 5503 5502
5525 5524 5524 5524 5524 5524 5525 5524 5524 5524 5525 5523 5522 5522 5521 5521 5520 5520 5519 5519 5518 5518 5518 5517 5516 5515 5514 5512 5511 5509 5507 5506 5505 5504 5503 5502 5502 5501 5499 5498 5497 5496 5496 5496